Location: Newark
(44.9333°N, 0.5667°E)
Time: 23:41:34
(UTC+00:00)

N. Korean satellite - Pass Details

Date: 20 December 2019
Orbit: 454 x 507 km, 97.2° (Epoch: 21 January)

Event Time Altitude Azimuth Distance (km) Brightness Sun altitude
Rises 17:36:45 0° 192° (SSW) 2,584 10.7 -13.2°
Reaches altitude 10° 17:39:03 10° 205° (SSW) 1,699 10.0 -13.6°
Maximum altitude 17:42:12 27° 264° (W) 982 9.0 -14.1°
Drops below altitude 10° 17:45:21 10° 324° (NW) 1,689 9.5 -14.6°
Sets 17:47:38 0° 337° (NNW) 2,566 10.3 -15.0°
